When you browse on this site, cookies collect data to enhance your experience and personalize the content and advertising you see.
Visit our Privacy Policy to learn more. By continuing to use the site, you agree to this use of cookies and data.
  • en France
  • Liste des pays
  • À 7 jours
  • Température de l'eau
  • Carte satellitaire
  • Carte météo
  • Widgets météo
  • user-avatar
    Se connecter

    Météo par heure à Kakanj

    Ce jour, 21 Mars, Jeudi

    Heure Température Précipitation Vent Pression Humidité
    00:00 +3°C° 0 mm 1 m/s 733 mmHg 90%
    01:00 +2°C° 0 mm 0 m/s 733 mmHg 89%
    02:00 +1°C° 0 mm 0 m/s 733 mmHg 89%
    03:00 +1°C° 0 mm 0 m/s 733 mmHg 89%
    04:00 +2°C° 0 mm 1 m/s 733 mmHg 89%
    05:00 +3°C° 0 mm 1 m/s 733 mmHg 86%
    06:00 +3°C° 0 mm 1 m/s 733 mmHg 83%
    07:00 +4°C° 0 mm 1 m/s 734 mmHg 80%
    08:00 +6°C° 0 mm 1 m/s 734 mmHg 72%
    09:00 +8°C° 0 mm 1 m/s 734 mmHg 63%
    10:00 +8°C° 0 mm 2 m/s 734 mmHg 55%
    11:00 +10°C° 0 mm 2 m/s 734 mmHg 53%
    12:00 +12°C° 0 mm 2 m/s 733 mmHg 51%
    13:00 +13°C° 0 mm 2 m/s 733 mmHg 49%
    14:00 +12°C° 0 mm 2 m/s 733 mmHg 50%
    15:00 +12°C° 0 mm 2 m/s 732 mmHg 52%
    16:00 +11°C° 0 mm 3 m/s 732 mmHg 53%
    17:00 +9°C° 0 mm 2 m/s 732 mmHg 60%
    18:00 +7°C° 0 mm 2 m/s 732 mmHg 67%
    19:00 +7°C° 0 mm 1 m/s 732 mmHg 74%
    20:00 +6°C° 0 mm 1 m/s 732 mmHg 75%
    21:00 +5°C° 0 mm 1 m/s 732 mmHg 76%
    22:00 +4°C° 0 mm 0 m/s 733 mmHg 77%
    23:00 +4°C° 0 mm 0 m/s 733 mmHg 77%

    Demain, 22 Mars, Vendredi

    Heure Température Précipitation Vent Pression Humidité
    00:00 +3°C° 0 mm 0 m/s 733 mmHg 78%
    01:00 +3°C° 0 mm 0 m/s 733 mmHg 78%
    02:00 +3°C° 0 mm 0 m/s 732 mmHg 78%
    03:00 +3°C° 0 mm 0 m/s 732 mmHg 78%
    04:00 +3°C° 0 mm 0 m/s 732 mmHg 78%
    05:00 +3°C° 0 mm 0 m/s 732 mmHg 75%
    06:00 +4°C° 0 mm 0 m/s 733 mmHg 72%
    07:00 +5°C° 0 mm 0 m/s 733 mmHg 70%
    08:00 +8°C° 0 mm 1 m/s 733 mmHg 61%
    09:00 +10°C° 0 mm 1 m/s 733 mmHg 53%
    10:00 +12°C° 0 mm 1 m/s 733 mmHg 45%
    11:00 +13°C° 0 mm 2 m/s 732 mmHg 43%
    12:00 +14°C° 0 mm 2 m/s 732 mmHg 41%
    13:00 +15°C° 0 mm 2 m/s 732 mmHg 39%
    14:00 +15°C° 0 mm 2 m/s 732 mmHg 40%
    15:00 +15°C° 0 mm 2 m/s 731 mmHg 42%
    16:00 +14°C° 0 mm 2 m/s 731 mmHg 44%
    17:00 +12°C° 0 mm 2 m/s 731 mmHg 52%
    18:00 +9°C° 0 mm 2 m/s 731 mmHg 59%
    19:00 +8°C° 0 mm 1 m/s 731 mmHg 66%
    20:00 +8°C° 0 mm 1 m/s 731 mmHg 68%
    21:00 +7°C° 0 mm 1 m/s 731 mmHg 70%
    22:00 +6°C° 0 mm 0 m/s 731 mmHg 71%
    23:00 +5°C° 0 mm 0 m/s 730 mmHg 72%

    Après-demain, 23 Mars, Samedi

    Heure Température Précipitation Vent Pression Humidité
    00:00 +5°C° 0 mm 0 m/s 730 mmHg 73%
    01:00 +5°C° 0 mm 0 m/s 730 mmHg 73%
    02:00 +5°C° 0 mm 0 m/s 730 mmHg 75%
    03:00 +5°C° 0 mm 0 m/s 730 mmHg 76%
    04:00 +4°C° 0 mm 0 m/s 730 mmHg 78%
    05:00 +5°C° 0 mm 0 m/s 730 mmHg 77%
    06:00 +6°C° 0 mm 0 m/s 730 mmHg 76%
    07:00 +6°C° 0 mm 0 m/s 730 mmHg 75%
    08:00 +10°C° 0 mm 1 m/s 730 mmHg 70%
    09:00 +12°C° 0 mm 1 m/s 730 mmHg 64%
    10:00 +14°C° 0 mm 1 m/s 730 mmHg 59%
    11:00 +15°C° 0 mm 2 m/s 729 mmHg 57%
    12:00 +16°C° 0 mm 2 m/s 729 mmHg 55%
    13:00 +17°C° 0 mm 2 m/s 729 mmHg 53%
    14:00 +17°C° 0 mm 2 m/s 729 mmHg 55%
    15:00 +16°C° 0 mm 2 m/s 728 mmHg 57%
    16:00 +16°C° 0 mm 2 m/s 728 mmHg 59%
    17:00 +14°C° 0 mm 2 m/s 728 mmHg 67%
    18:00 +12°C° 0 mm 1 m/s 728 mmHg 75%
    19:00 +11°C° 0 mm 1 m/s 728 mmHg 82%
    20:00 +10°C° 0 mm 1 m/s 728 mmHg 84%
    21:00 +8°C° 0 mm 0 m/s 728 mmHg 86%
    22:00 +8°C° 0 mm 0 m/s 729 mmHg 88%
    23:00 +8°C° 0 mm 0 m/s 728 mmHg 88%

    24 Mars, Dimanche

    Heure Température Précipitation Vent Pression Humidité
    00:00 +7°C° 0 mm 0 m/s 728 mmHg 89%
    01:00 +7°C° 0 mm 0 m/s 728 mmHg 90%
    02:00 +6°C° 0 mm 0 m/s 728 mmHg 90%
    03:00 +6°C° 0 mm 0 m/s 728 mmHg 91%
    04:00 +6°C° 0 mm 0 m/s 728 mmHg 91%
    05:00 +6°C° 0 mm 0 m/s 728 mmHg 89%
    06:00 +7°C° 0 mm 0 m/s 728 mmHg 87%
    07:00 +7°C° 0 mm 0 m/s 728 mmHg 85%
    08:00 +11°C° 0 mm 1 m/s 728 mmHg 71%
    09:00 +14°C° 0 mm 1 m/s 728 mmHg 58%
    10:00 +16°C° 0 mm 1 m/s 729 mmHg 44%
    11:00 +19°C° 0 mm 1 m/s 728 mmHg 39%
    12:00 +20°C° 0 mm 1 m/s 728 mmHg 35%
    13:00 +21°C° 0 mm 1 m/s 728 mmHg 30%
    14:00 +21°C° 0 mm 1 m/s 727 mmHg 30%
    15:00 +21°C° 0 mm 1 m/s 727 mmHg 30%
    16:00 +20°C° 0 mm 1 m/s 726 mmHg 30%
    17:00 +18°C° 0 mm 1 m/s 726 mmHg 38%
    18:00 +14°C° 0 mm 1 m/s 726 mmHg 45%
    19:00 +11°C° 0 mm 0 m/s 726 mmHg 52%
    20:00 +10°C° 0 mm 0 m/s 726 mmHg 54%
    21:00 +10°C° 0 mm 0 m/s 726 mmHg 57%
    22:00 +9°C° 0 mm 0 m/s 726 mmHg 59%
    23:00 +9°C° 0 mm 0 m/s 726 mmHg 60%

    25 Mars, Lundi

    Heure Température Précipitation Vent Pression Humidité
    00:00 +8°C° 0 mm 0 m/s 726 mmHg 62%
    01:00 +8°C° 0 mm 0 m/s 725 mmHg 63%
    02:00 +8°C° 0 mm 0 m/s 725 mmHg 65%
    03:00 +7°C° 0 mm 0 m/s 725 mmHg 67%
    04:00 +7°C° 0 mm 0 m/s 725 mmHg 69%
    05:00 +7°C° 0 mm 0 m/s 725 mmHg 68%
    06:00 +8°C° 0 mm 0 m/s 726 mmHg 68%
    07:00 +8°C° 0 mm 0 m/s 726 mmHg 68%
    08:00 +11°C° 0 mm 1 m/s 726 mmHg 64%
    09:00 +13°C° 0 mm 1 m/s 726 mmHg 61%
    10:00 +15°C° 0 mm 2 m/s 727 mmHg 57%
    11:00 +14°C° 0.1 mm 2 m/s 726 mmHg 65%
    12:00 +13°C° 0.1 mm 2 m/s 726 mmHg 72%
    13:00 +11°C° 0.1 mm 3 m/s 726 mmHg 80%
    14:00 +12°C° 0.1 mm 2 m/s 726 mmHg 77%
    15:00 +12°C° 0.1 mm 2 m/s 726 mmHg 75%
    16:00 +12°C° 0.1 mm 2 m/s 725 mmHg 72%
    17:00 +9°C° 0 mm 2 m/s 725 mmHg 77%
    18:00 +9°C° 0 mm 1 m/s 726 mmHg 83%
    19:00 +8°C° 0 mm 1 m/s 726 mmHg 88%
    20:00 +8°C° 0 mm 1 m/s 726 mmHg 89%
    21:00 +8°C° 0 mm 1 m/s 726 mmHg 89%
    22:00 +7°C° 0 mm 1 m/s 727 mmHg 90%
    23:00 +7°C° 0 mm 1 m/s 727 mmHg 91%

    26 Mars, Mardi

    Heure Température Précipitation Vent Pression Humidité
    00:00 +6°C° 0 mm 1 m/s 727 mmHg 92%
    01:00 +6°C° 0 mm 1 m/s 727 mmHg 93%
    02:00 +5°C° 0 mm 1 m/s 726 mmHg 92%
    03:00 +4°C° 0 mm 0 m/s 726 mmHg 91%
    04:00 +3°C° 0 mm 0 m/s 726 mmHg 91%
    05:00 +3°C° 0 mm 0 m/s 727 mmHg 85%
    06:00 +4°C° 0 mm 0 m/s 727 mmHg 79%
    07:00 +5°C° 0 mm 0 m/s 727 mmHg 74%
    08:00 +7°C° 0.1 mm 1 m/s 727 mmHg 68%
    09:00 +6°C° 0.1 mm 2 m/s 727 mmHg 63%
    10:00 +7°C° 0.1 mm 3 m/s 726 mmHg 58%
    11:00 +8°C° 0 mm 3 m/s 726 mmHg 56%
    12:00 +8°C° 0 mm 3 m/s 726 mmHg 54%
    13:00 +9°C° 0 mm 3 m/s 725 mmHg 52%
    14:00 +9°C° 0.1 mm 3 m/s 725 mmHg 51%
    15:00 +8°C° 0.1 mm 4 m/s 725 mmHg 51%
    16:00 +8°C° 0.1 mm 4 m/s 725 mmHg 51%
    17:00 +7°C° 0.3 mm 4 m/s 725 mmHg 62%
    18:00 +7°C° 0.3 mm 3 m/s 726 mmHg 73%
    19:00 +4°C° 0.3 mm 3 m/s 726 mmHg 84%
    20:00 +4°C° 0.4 mm 3 m/s 727 mmHg 83%
    21:00 +3°C° 0.4 mm 3 m/s 727 mmHg 82%
    22:00 +2°C° 0.4 mm 3 m/s 728 mmHg 80%
    23:00 +2°C° 0 mm 2 m/s 728 mmHg 81%
    Voir plus